User: anonymous   Login
Location: Newark
(34.0111°N, 88.4892°W)
Time: 09:19:56
(UTC+00:00)
Language:

Oscar 19 - Orbit

View from above orbital plane
View from above orbital plane
View from above satellite
View from above satellite

Ground track
Ground track

The orbit data is extracted from the following two-line orbital elements,

1 20442U 90005G   20158.13069394 -.00000024  00000-0  78187-5 0  9990
2 20442  98.6917 105.3413 0011586 182.7302 177.3820 14.32954085586991
Epoch (UTC): 06 June 2020 03:08:11
Eccentricity: 0.0011586
inclination: 98.6917°
perigee height: 773 km
apogee height: 790 km
right ascension of ascending node: 105.3413°
argument of perigee: 182.7302°
revolutions per day: 14.32954085
mean anomaly at epoch: 177.3820°
orbit number at epoch: 58699

The dashed part of the orbit path shows where the satellite is in the earth's shadow,  

DLR